Location: Unspecified
(22.6800°N, 112.2000°E)
Time: 13:47:05
(UTC+08:00)

Transit 2A - Pass Details

Date: 06 August 2021
Orbit: 594 x 964 km, 66.7° (Epoch: 21 September)

Event Time Altitude Azimuth Distance (km) Brightness Sun altitude
Rises 14:11:55 0° 355° (N) 3,390 9.3 66.9°
Reaches altitude 10° 14:14:45 10° 8° (N) 2,513 8.7 66.3°
Maximum altitude 14:19:32 25° 63° (ENE) 1,738 7.9 65.2°
Drops below altitude 10° 14:24:33 10° 117° (ESE) 2,655 8.7 64.0°
Sets 14:27:36 0° 129° (SE) 3,623 9.3 63.3°
